Weather History for Columbus AFB, MS

Change the Weather History Date:

Monday, February 11, 2013

  Actual Average Record
Temperature  
Mean Temperature 53 °F -  
Max Temperature 60 °F 56 °F 78 °F (1999)
Min Temperature 46 °F 37 °F 14 °F (2011)
Degree Days  
Heating Degree Days 12    
Growing Degree Days 3 (Base 50)    
Moisture  
Dew Point 53 °F    
Average Humidity 97    
Maximum Humidity 100    
Minimum Humidity 72    
Precipitation  
Precipitation 0.10 in - - ()
Sea Level Pressure  
Sea Level Pressure 30.11 in    
Wind  
Wind Speed 4 mph (WNW)    
Max Wind Speed 10 mph    
Max Gust Speed -    
Visibility 7 miles    
Events Fog , Rain    
Averages and records for this station are not official NWS values.
T = Trace of Precipitation, MM = Missing Value Source: NWS Daily Summary

Daily Weather History Graph

Daily Weather History Graph

Search for Another Location

Airport:

Trip Planner

Search our weather history database for the weather conditions in past years. The results will help you decide how hot, cold, wet, or windy it might be!

Date:

Astronomy

Feb. 11, 2013 Rise Set
Actual Time 6:41 AM CST 5:34 PM CST
Civil Twilight 6:16 AM CST 6:00 PM CST
Nautical Twilight 5:46 AM CST 6:29 PM CST
Astronomical Twilight 5:17 AM CST 6:58 PM CST
Moon 7:13 AM CST (2/11) 7:22 PM CST (2/11)
Length of Visible Light 11h 44m
Length of Day
10h 53m
Waxing Crescent, 3% of the Moon is Illuminated
Feb 11
Waxing Crescent
Feb 17
First Quarter
Feb 25
Full
Mar 4
Last Quarter
Mar 11
New

Hourly Weather History & Observations

Time (CST) Temp. Windchill Dew Point Humidity Pressure Visibility Wind Dir Wind Speed Gust Speed Precip Events Conditions
12:23 AM 60.8 °F - 60.8 °F 100% 30.01 in 10.0 mi WNW 6.9 mph - N/A   Overcast
12:58 AM 60.1 °F - 60.1 °F 100% 30.04 in 9.0 mi West 4.6 mph - N/A   Overcast
1:18 AM 59.0 °F - 59.0 °F 100% 30.04 in 10.0 mi WSW 3.5 mph - N/A Rain Light Rain
1:29 AM 59.0 °F - 59.0 °F 100% 30.04 in 10.0 mi SSW 3.5 mph - N/A   Mostly Cloudy
1:58 AM 57.7 °F - 57.7 °F 100% 30.04 in 7.0 mi South 5.8 mph - 0.00 in   Partly Cloudy
2:03 AM 57.2 °F - 57.2 °F 100% 30.03 in 1.2 mi South 3.5 mph - N/A   Partly Cloudy
2:08 AM 57.2 °F - 57.2 °F 100% 30.02 in 0.8 mi SSE 3.5 mph - N/A   Partly Cloudy
2:13 AM 57.2 °F - 57.2 °F 100% 30.02 in 0.5 mi SE 3.5 mph - N/A Fog Fog
2:33 AM 55.4 °F - 55.4 °F 100% 30.01 in 0.2 mi ESE 4.6 mph - N/A Fog Fog
2:43 AM 55.4 °F - 55.4 °F 100% 30.01 in 0.2 mi ESE 2.3 mph - N/A Fog Fog
4:03 AM 55.4 °F - 55.4 °F 100% 30.05 in 0.8 mi WSW 2.3 mph - N/A   Mist
4:18 AM 55.4 °F - 55.4 °F 100% 30.05 in 0.5 mi Calm Calm - N/A Fog Fog
4:38 AM 55.4 °F - 55.4 °F 100% 30.05 in 0.2 mi Calm Calm - N/A Fog Fog
4:43 AM 53.6 °F - 53.6 °F 100% 30.05 in 0.5 mi Calm Calm - N/A Fog Fog
4:48 AM 55.4 °F - 55.4 °F 100% 30.05 in 0.2 mi NNE 1.2 mph - N/A Fog Fog
4:53 AM 55.4 °F - 55.4 °F 100% 30.06 in 0.5 mi Calm Calm - N/A Fog Fog
4:58 AM 54.5 °F - 54.5 °F 100% 30.08 in 0.5 mi Calm Calm - N/A Fog Fog
5:03 AM 53.6 °F - 53.6 °F 100% 30.08 in 0.8 mi West 2.3 mph - N/A   Scattered Clouds
5:08 AM 53.6 °F - 53.6 °F 100% 30.09 in 1.0 mi West 2.3 mph - N/A   Mist
5:13 AM 53.6 °F - 53.6 °F 100% 30.09 in 1.8 mi West 2.3 mph - N/A   Partly Cloudy
5:18 AM 53.6 °F - 53.6 °F 100% 30.09 in 1.8 mi West 2.3 mph - N/A   Partly Cloudy
5:23 AM 53.6 °F - 53.6 °F 100% 30.09 in 1.8 mi Variable 1.2 mph - N/A   Partly Cloudy
5:33 AM 53.6 °F - 53.6 °F 100% 30.07 in 1.0 mi North 2.3 mph - N/A   Partly Cloudy
5:38 AM 53.6 °F - 53.6 °F 100% 30.07 in 0.8 mi NNW 3.5 mph - N/A   Partly Cloudy
5:43 AM 53.6 °F - 53.6 °F 100% 30.07 in 0.8 mi NNW 4.6 mph - N/A   Clear
5:48 AM 53.6 °F - 53.6 °F 100% 30.07 in 1.0 mi NW 4.6 mph - N/A   Clear
5:53 AM 53.6 °F - 53.6 °F 100% 30.08 in 1.5 mi NW 5.8 mph - N/A   Clear
5:58 AM 55.4 °F - 55.4 °F 100% 30.09 in 2.5 mi WNW 5.8 mph - N/A   Clear
6:58 AM 54.3 °F - 54.3 °F 100% 30.12 in 10.0 mi WNW 2.3 mph - N/A   Overcast
7:03 AM 53.6 °F - 53.6 °F 100% 30.12 in 10.0 mi WSW 2.3 mph - N/A   Clear
7:13 AM 55.4 °F - 55.4 °F 100% 30.12 in 10.0 mi Calm Calm - N/A Rain Light Rain
7:58 AM 54.5 °F - 54.5 °F 100% 30.15 in 10.0 mi NW 1.2 mph - 0.03 in Rain Light Rain
8:58 AM 54.5 °F - 54.5 °F 100% 30.14 in 10.0 mi East 4.6 mph - 0.02 in Rain Light Rain
9:05 AM 55.4 °F - 55.4 °F 100% 30.14 in 10.0 mi Calm Calm - N/A Rain Light Rain
9:07 AM 55.4 °F - 55.4 °F 100% 30.13 in 10.0 mi Calm Calm - N/A   Clear
9:09 AM 55.4 °F - 55.4 °F 100% 30.13 in 10.0 mi Variable 2.3 mph - N/A Rain Light Rain
9:39 AM 53.6 °F - 53.6 °F 100% 30.20 in 10.0 mi WNW 10.4 mph - N/A   Overcast
9:58 AM 53.1 °F - 53.1 °F 100% 30.20 in 10.0 mi West 3.5 mph - 0.00 in   Mostly Cloudy
10:58 AM 53.6 °F - 53.6 °F 100% 30.18 in 10.0 mi NW 1.2 mph - N/A   Mostly Cloudy
11:01 AM 53.6 °F - 53.6 °F 100% 30.17 in 10.0 mi WNW 1.2 mph - N/A Rain Light Rain
11:22 AM 53.6 °F - 53.6 °F 100% 30.17 in 10.0 mi WSW 3.5 mph - N/A   Mostly Cloudy
11:33 AM 53.6 °F - 53.6 °F 100% 30.17 in 10.0 mi SW 5.8 mph - N/A   Scattered Clouds
11:59 AM 53.6 °F - 53.6 °F 100% 30.19 in 10.0 mi WNW 8.1 mph - N/A Rain Light Rain
12:04 PM 53.6 °F - 53.6 °F 100% 30.18 in 10.0 mi West 4.6 mph - N/A Rain Light Rain
12:09 PM 53.6 °F - 53.6 °F 100% 30.18 in 10.0 mi West 4.6 mph - N/A Rain Light Rain
12:14 PM 53.6 °F - 53.6 °F 100% 30.17 in 10.0 mi WNW 1.2 mph - N/A Rain Light Rain
12:15 PM 53.6 °F - 51.8 °F 94% 30.17 in 10.0 mi Variable 1.2 mph - N/A   Scattered Clouds
12:17 PM 53.6 °F - 51.8 °F 94% 30.16 in 10.0 mi West 2.3 mph - N/A Rain Light Rain
12:33 PM 53.6 °F - 51.8 °F 94% 30.16 in 10.0 mi SW 3.5 mph - N/A Rain Light Rain
12:58 PM 53.6 °F - 52.2 °F 95% 30.17 in 10.0 mi WSW 4.6 mph - 0.03 in Rain Light Rain
1:14 PM 51.8 °F - 50.0 °F 94% 30.15 in 10.0 mi NW 8.1 mph - N/A Rain Light Rain
1:29 PM 51.8 °F - 46.4 °F 82% 30.15 in 10.0 mi North 5.8 mph - N/A   Mostly Cloudy
1:34 PM 51.8 °F - 46.4 °F 82% 30.16 in 10.0 mi NNW 6.9 mph - N/A   Scattered Clouds
1:58 PM 51.6 °F - 48.2 °F 88% 30.14 in 10.0 mi NNE 5.8 mph - 0.02 in   Partly Cloudy
2:58 PM 52.7 °F - 47.8 °F 84% 30.12 in 10.0 mi North 6.9 mph - N/A   Mostly Cloudy
3:58 PM 52.3 °F - 43.5 °F 72% 30.13 in 10.0 mi NNW 5.8 mph - N/A   Partly Cloudy
4:58 PM 51.1 °F - 44.2 °F 77% 30.13 in 10.0 mi Calm Calm - N/A   Scattered Clouds
5:58 PM 49.8 °F - 45.1 °F 84% 30.13 in 10.0 mi Calm Calm - N/A   Mostly Cloudy
7:58 PM 48.2 °F - 44.6 °F 87% 30.20 in 10.0 mi West 4.6 mph - N/A   Mostly Cloudy
8:58 PM 47.3 °F - 45.7 °F 94% 30.16 in 10.0 mi Calm Calm - N/A   Mostly Cloudy
9:58 PM 47.1 °F - 44.2 °F 90% 30.16 in 10.0 mi Calm Calm - N/A   Overcast
10:58 PM 46.4 °F - 45.1 °F 95% 30.16 in 10.0 mi NNW 1.2 mph - N/A   Overcast
11:12 PM 46.4 °F 42.4 °F 44.6 °F 93% 30.19 in 10.0 mi West 8.1 mph - N/A Rain Light Rain
11:22 PM 46.4 °F - 44.6 °F 93% 30.19 in 10.0 mi Calm Calm - N/A   Mostly Cloudy
11:58 PM 46.4 °F - 45.1 °F 95% 30.15 in 10.0 mi NNE 1.2 mph - 0.00 in   Overcast